Sharm El Sheikh, Egypt

10:01 AM EET on May 24, 2017 (GMT +0200)
Sharm El Sheikh

Weather History for HESH - December, 2012

Change the Weather History Date:

Thursday, December 6, 2012

  Actual Average Record
Temperature  
Mean Temperature 71 °F -  
Max Temperature 82 °F 73 °F - ()
Min Temperature 60 °F 58 °F - ()
Cooling Degree Days 6    
Growing Degree Days 21 (Base 50)    
Moisture  
Dew Point 48 °F    
Average Humidity 47    
Maximum Humidity 59    
Minimum Humidity 28    
Precipitation  
Precipitation 0.00 in 0.00 in - ()
Sea Level Pressure  
Sea Level Pressure 29.96 in    
Wind  
Wind Speed 4 mph ()    
Max Wind Speed 8 mph    
Max Gust Speed -    
Visibility 6.2 miles    
Events      
T = Trace of Precipitation, MM = Missing Value Source: Averaged Metar Reports

Daily Weather History Graph

Daily Weather History Graph

Search for Another Location

Airport or City:

Trip Planner

Search our weather history database for the weather conditions in past years. The results will help you decide how hot, cold, wet, or windy it might be!

Date:

Astronomy

Dec. 06, 2012 Rise Set
Actual Time 6:20 AM EET 4:46 PM EET
Civil Twilight 5:54 AM EET 5:12 PM EET
Nautical Twilight 5:25 AM EET 5:41 PM EET
Astronomical Twilight 4:57 AM EET 6:10 PM EET
Moon 11:48 PM EET (12/6) 11:29 AM EET (12/6)
Length of Visible Light 11h 17m
Length of Day
10h 26m
Waning Gibbous, 52% of the Moon is Illuminated
Dec 6
Waning Gibbous
Dec 6
Last Quarter
Dec 13
New
Dec 20
First Quarter
Dec 28
Full

Hourly Weather History & Observations

Time (EET) Temp. Dew Point Humidity Pressure Visibility Wind Dir Wind Speed Gust Speed Precip Events Conditions
12:00 AM 62.6 °F 48.2 °F 59% 29.92 in - West 2.3 mph - N/A   Clear
1:00 AM 62.6 °F 46.4 °F 55% 29.92 in - WNW 3.5 mph - N/A   Clear
2:00 AM 62.6 °F 44.6 °F 52% 29.92 in - WNW 3.5 mph - N/A   Clear
3:00 AM 62.6 °F 46.4 °F 55% 29.92 in - NW 4.6 mph - N/A   Clear
4:00 AM 62.6 °F 46.4 °F 55% 29.92 in - NW 4.6 mph - N/A   Clear
5:00 AM 60.8 °F 46.4 °F 59% 29.95 in - NW 3.5 mph - N/A   Clear
6:00 AM 62.6 °F 46.4 °F 55% 29.95 in - NW 5.8 mph - N/A   Clear
7:00 AM 60.8 °F 46.4 °F 59% 29.98 in - NW 6.9 mph - N/A   Clear
8:00 AM 69.8 °F 46.4 °F 43% 30.01 in - North 4.6 mph - N/A   Clear
9:00 AM 73.4 °F 48.2 °F 41% 30.01 in - North 8.1 mph - N/A   Clear
10:00 AM 78.8 °F 46.4 °F 32% 30.01 in - North 5.8 mph - N/A   Clear
11:00 AM 80.6 °F 46.4 °F 30% 30.01 in - NE 4.6 mph - N/A   Clear
12:00 PM 82.4 °F 46.4 °F 28% 29.98 in - NNE 3.5 mph - N/A   Clear
1:00 PM 80.6 °F 48.2 °F 32% 29.95 in - SE 4.6 mph - N/A   Clear
2:00 PM 80.6 °F 46.4 °F 30% 29.95 in - SSE 5.8 mph - N/A   Clear
3:00 PM 78.8 °F 50.0 °F 36% 29.95 in - SSE 6.9 mph - N/A   Clear
4:00 PM 75.2 °F 51.8 °F 44% 29.95 in - SE 8.1 mph - N/A   Clear
5:00 PM 73.4 °F 51.8 °F 47% 29.95 in - SSE 6.9 mph - N/A   Clear
6:00 PM 71.6 °F 50.0 °F 46% 29.95 in 6.2 mi Variable 2.3 mph - N/A   Scattered Clouds
7:00 PM 68.0 °F 51.8 °F 56% 29.98 in 6.2 mi North 3.5 mph - N/A   Scattered Clouds
8:00 PM 68.0 °F 51.8 °F 56% 29.98 in - NNW 4.6 mph - N/A   Clear
9:00 PM 66.2 °F 50.0 °F 56% 29.98 in - North 3.5 mph - N/A   Clear
10:00 PM 64.4 °F 50.0 °F 59% 29.98 in - Variable 2.3 mph - N/A   Clear
11:00 PM 66.2 °F 48.2 °F 52% 29.98 in - NNW 5.8 mph - N/A   Clear